| State | Missouri | Latest | Low (1010 cfs) | |
| River | Sac River | Rating | Observed | Estimated |
| Updated | 2026-05-10 8:45 (32 minutes ago) | Flood - The river is flooding. Obstacles can be treacherous or deadly. The river should be avoided at this stage for casual trips and definitely for the inexperienced. Trips should be attempted only with protective gear and equipment.Flood | (none) | 6741 |
| Discharge | 1010 cfs (median: 2580 cfs) | High - The river is high and potentially dangerous, especially for the young and / or inexperienced. Normal stream obstacles are sometimes difficult to navigate. Extended distances can be attempted, but canoe travel may not be advisable.High | (none) | 2350 |
| Height | 7.7 feet | Good - Conditions are ideal for a canoe or kayak. Boats typically will drag on fewer than one-quarter of riffles, if at all, and portages are unnecessary or rare. Normal float lengths can be attempted without a problem.Good | (none) | 1695 |
| Trend | Falling (falling over 24 hours) | Low - River is low but can still be floated. Some riffles are okay but most come with significant dragging and might need a portage. Float lengths should be reduced to accommodate low flow, dragging, and portages.Low | 60 | 1275 |
| USGS | USGS Site ( Duck Duck Go Maps) | Poor - River is too low to float comfortably. Most or all riffles will drag or must be portaged and some obstacles (such as slick shelf rock) cause undue problems. Avoid the river at this stage for casual paddling trips.Poor | (none) | 75 |
A total of 1 rows are displayed.
| Miles | 0.7 |
| Trips | 1 |
| People | 3 |
| Dates | 1 |
| Years | 1 |
| Months | 1 |
| Rows | 1 |
| Sources | 1 |
BLG - Bluegill
CCF - Channel Catfish
CP - Chain Pickerel
FWD - Freshwater Drum
GSF - Green Sunfish
KSB - Kentucky Spotted Bass
LMB - Largemouth Bass
LSF - Longear Sunfish
RB - Rock Bass / Goggle Eye
RSF - Redear Sunfish
RT - Rainbow Trout
SMB - Smallmouth Bass
WB - White Bass
WF - Whitefish
WL - WalleyeThe classic River Trips application is still available for use. It is updated with the new system using a data retrofit. It is no longer maintained. The original River Trips application is no longer updated (as of 1 Dec 2016) but can be checked for errors or for the condition of the data before it was converted to the new system.
| Observation | Height | Discharge | Maximum Discharge | Minimum Discharge | Mean Discharge | P05 | P10 | P20 | P25 | P50 (Median) | P75 | P80 | P90 | P95 |
|---|---|---|---|---|---|---|---|---|---|---|---|---|---|---|
| 2026-05-10 08:45 | 7.70 | 1010 | 12300 (2002) | 80 (1981) | 3070 | 191 | 283 | 477 | 676 | 2580 | 4200 | 5120 | 7230 | 9340 |
| 2026-05-10 07:45 | 7.99 | 1180 | 12300 (2002) | 80 (1981) | 3070 | 191 | 283 | 477 | 676 | 2580 | 4200 | 5120 | 7230 | 9340 |
| 2026-05-10 06:45 | 8.32 | 1390 | 12300 (2002) | 80 (1981) | 3070 | 191 | 283 | 477 | 676 | 2580 | 4200 | 5120 | 7230 | 9340 |
| 2026-05-10 05:45 | 8.67 | 1600 | 12300 (2002) | 80 (1981) | 3070 | 191 | 283 | 477 | 676 | 2580 | 4200 | 5120 | 7230 | 9340 |
| 2026-05-10 04:45 | 9.00 | 1810 | 12300 (2002) | 80 (1981) | 3070 | 191 | 283 | 477 | 676 | 2580 | 4200 | 5120 | 7230 | 9340 |
| 2026-05-10 03:45 | 9.30 | 2010 | 12300 (2002) | 80 (1981) | 3070 | 191 | 283 | 477 | 676 | 2580 | 4200 | 5120 | 7230 | 9340 |
| 2026-05-10 02:45 | 9.51 | 2160 | 12300 (2002) | 80 (1981) | 3070 | 191 | 283 | 477 | 676 | 2580 | 4200 | 5120 | 7230 | 9340 |
| 2026-05-10 01:45 | 9.56 | 2190 | 12300 (2002) | 80 (1981) | 3070 | 191 | 283 | 477 | 676 | 2580 | 4200 | 5120 | 7230 | 9340 |
| 2026-05-10 00:45 | 9.36 | 2050 | 12300 (2002) | 80 (1981) | 3070 | 191 | 283 | 477 | 676 | 2580 | 4200 | 5120 | 7230 | 9340 |
| 2026-05-09 23:45 | 8.76 | 1660 | 12300 (2002) | 80 (1981) | 3070 | 191 | 283 | 477 | 676 | 2580 | 4200 | 5120 | 7230 | 9340 |
| 2026-05-09 22:45 | 7.52 | 917 | 21000 (2009) | 80 (1981) | 3660 | 176 | 231 | 560 | 903 | 2420 | 4390 | 5350 | 8130 | 15100 |
| 2026-05-09 21:45 | 6.37 | 405 | 21000 (2009) | 80 (1981) | 3660 | 176 | 231 | 560 | 903 | 2420 | 4390 | 5350 | 8130 | 15100 |
| 2026-05-09 20:45 | 6.37 | 405 | 21000 (2009) | 80 (1981) | 3660 | 176 | 231 | 560 | 903 | 2420 | 4390 | 5350 | 8130 | 15100 |
| 2026-05-09 19:45 | 6.45 | 435 | 21000 (2009) | 80 (1981) | 3660 | 176 | 231 | 560 | 903 | 2420 | 4390 | 5350 | 8130 | 15100 |
| 2026-05-09 18:45 | 6.53 | 466 | 21000 (2009) | 80 (1981) | 3660 | 176 | 231 | 560 | 903 | 2420 | 4390 | 5350 | 8130 | 15100 |
| 2026-05-09 17:45 | 6.62 | 501 | 21000 (2009) | 80 (1981) | 3660 | 176 | 231 | 560 | 903 | 2420 | 4390 | 5350 | 8130 | 15100 |
| 2026-05-09 16:45 | 6.71 | 538 | 21000 (2009) | 80 (1981) | 3660 | 176 | 231 | 560 | 903 | 2420 | 4390 | 5350 | 8130 | 15100 |
| 2026-05-09 15:45 | 6.81 | 580 | 21000 (2009) | 80 (1981) | 3660 | 176 | 231 | 560 | 903 | 2420 | 4390 | 5350 | 8130 | 15100 |
| 2026-05-09 14:45 | 6.91 | 623 | 21000 (2009) | 80 (1981) | 3660 | 176 | 231 | 560 | 903 | 2420 | 4390 | 5350 | 8130 | 15100 |
| 2026-05-09 13:45 | 7.02 | 673 | 21000 (2009) | 80 (1981) | 3660 | 176 | 231 | 560 | 903 | 2420 | 4390 | 5350 | 8130 | 15100 |
| 2026-05-09 12:45 | 7.14 | 728 | 21000 (2009) | 80 (1981) | 3660 | 176 | 231 | 560 | 903 | 2420 | 4390 | 5350 | 8130 | 15100 |
| 2026-05-09 11:45 | 7.29 | 800 | 21000 (2009) | 80 (1981) | 3660 | 176 | 231 | 560 | 903 | 2420 | 4390 | 5350 | 8130 | 15100 |
| 2026-05-09 10:45 | 7.46 | 886 | 21000 (2009) | 80 (1981) | 3660 | 176 | 231 | 560 | 903 | 2420 | 4390 | 5350 | 8130 | 15100 |
| 2026-05-09 09:45 | 7.65 | 986 | 21000 (2009) | 80 (1981) | 3660 | 176 | 231 | 560 | 903 | 2420 | 4390 | 5350 | 8130 | 15100 |
| 2026-05-09 08:45 | 7.83 | 1090 | 21000 (2009) | 80 (1981) | 3660 | 176 | 231 | 560 | 903 | 2420 | 4390 | 5350 | 8130 | 15100 |
| 2026-05-09 07:45 | 8.00 | 1190 | 21000 (2009) | 80 (1981) | 3660 | 176 | 231 | 560 | 903 | 2420 | 4390 | 5350 | 8130 | 15100 |
| 2026-05-09 06:45 | 8.12 | 1260 | 21000 (2009) | 80 (1981) | 3660 | 176 | 231 | 560 | 903 | 2420 | 4390 | 5350 | 8130 | 15100 |
| 2026-05-09 05:45 | 8.15 | 1280 | 21000 (2009) | 80 (1981) | 3660 | 176 | 231 | 560 | 903 | 2420 | 4390 | 5350 | 8130 | 15100 |
| 2026-05-09 04:45 | 8.00 | 1190 | 21000 (2009) | 80 (1981) | 3660 | 176 | 231 | 560 | 903 | 2420 | 4390 | 5350 | 8130 | 15100 |
| 2026-05-09 03:45 | 7.61 | 964 | 21000 (2009) | 80 (1981) | 3660 | 176 | 231 | 560 | 903 | 2420 | 4390 | 5350 | 8130 | 15100 |
| 2026-05-09 02:45 | 6.91 | 623 | 21000 (2009) | 80 (1981) | 3660 | 176 | 231 | 560 | 903 | 2420 | 4390 | 5350 | 8130 | 15100 |
| 2026-05-09 01:45 | 6.32 | 387 | 21000 (2009) | 80 (1981) | 3660 | 176 | 231 | 560 | 903 | 2420 | 4390 | 5350 | 8130 | 15100 |
| 2026-05-09 00:45 | 6.27 | 369 | 21000 (2009) | 80 (1981) | 3660 | 176 | 231 | 560 | 903 | 2420 | 4390 | 5350 | 8130 | 15100 |
| 2026-05-08 23:45 | 6.31 | 384 | 21000 (2009) | 80 (1981) | 3660 | 176 | 231 | 560 | 903 | 2420 | 4390 | 5350 | 8130 | 15100 |
| 2026-05-08 22:45 | 6.37 | 405 | 17400 (2002) | 80 (1981) | 3670 | 133 | 164 | 485 | 817 | 2780 | 4880 | 5640 | 9890 | 13100 |
| 2026-05-08 21:45 | 6.44 | 431 | 17400 (2002) | 80 (1981) | 3670 | 133 | 164 | 485 | 817 | 2780 | 4880 | 5640 | 9890 | 13100 |
| 2026-05-08 20:45 | 6.50 | 454 | 17400 (2002) | 80 (1981) | 3670 | 133 | 164 | 485 | 817 | 2780 | 4880 | 5640 | 9890 | 13100 |
| 2026-05-08 19:45 | 6.54 | 469 | 17400 (2002) | 80 (1981) | 3670 | 133 | 164 | 485 | 817 | 2780 | 4880 | 5640 | 9890 | 13100 |
| 2026-05-08 18:45 | 6.63 | 505 | 17400 (2002) | 80 (1981) | 3670 | 133 | 164 | 485 | 817 | 2780 | 4880 | 5640 | 9890 | 13100 |
| 2026-05-08 17:45 | 6.75 | 554 | 17400 (2002) | 80 (1981) | 3670 | 133 | 164 | 485 | 817 | 2780 | 4880 | 5640 | 9890 | 13100 |
| 2026-05-08 16:45 | 6.88 | 610 | 17400 (2002) | 80 (1981) | 3670 | 133 | 164 | 485 | 817 | 2780 | 4880 | 5640 | 9890 | 13100 |
| 2026-05-08 15:45 | 7.02 | 673 | 17400 (2002) | 80 (1981) | 3670 | 133 | 164 | 485 | 817 | 2780 | 4880 | 5640 | 9890 | 13100 |
| 2026-05-08 14:45 | 7.20 | 757 | 17400 (2002) | 80 (1981) | 3670 | 133 | 164 | 485 | 817 | 2780 | 4880 | 5640 | 9890 | 13100 |
| 2026-05-08 13:45 | 7.40 | 855 | 17400 (2002) | 80 (1981) | 3670 | 133 | 164 | 485 | 817 | 2780 | 4880 | 5640 | 9890 | 13100 |
| 2026-05-08 12:45 | 7.66 | 991 | 17400 (2002) | 80 (1981) | 3670 | 133 | 164 | 485 | 817 | 2780 | 4880 | 5640 | 9890 | 13100 |
| 2026-05-08 11:45 | 7.96 | 1160 | 17400 (2002) | 80 (1981) | 3670 | 133 | 164 | 485 | 817 | 2780 | 4880 | 5640 | 9890 | 13100 |
| 2026-05-08 10:45 | 8.32 | 1390 | 17400 (2002) | 80 (1981) | 3670 | 133 | 164 | 485 | 817 | 2780 | 4880 | 5640 | 9890 | 13100 |
| 2026-05-08 09:45 | 8.73 | 1640 | 17400 (2002) | 80 (1981) | 3670 | 133 | 164 | 485 | 817 | 2780 | 4880 | 5640 | 9890 | 13100 |
| 2026-05-08 08:45 | 9.18 | 1930 | 17400 (2002) | 80 (1981) | 3670 | 133 | 164 | 485 | 817 | 2780 | 4880 | 5640 | 9890 | 13100 |
| 2026-05-08 07:45 | 9.63 | 2240 | 17400 (2002) | 80 (1981) | 3670 | 133 | 164 | 485 | 817 | 2780 | 4880 | 5640 | 9890 | 13100 |
| 2026-05-08 06:45 | 10.09 | 2580 | 17400 (2002) | 80 (1981) | 3670 | 133 | 164 | 485 | 817 | 2780 | 4880 | 5640 | 9890 | 13100 |
| 2026-05-08 05:45 | 10.48 | 2880 | 17400 (2002) | 80 (1981) | 3670 | 133 | 164 | 485 | 817 | 2780 | 4880 | 5640 | 9890 | 13100 |
| 2026-05-08 04:45 | 10.78 | 3120 | 17400 (2002) | 80 (1981) | 3670 | 133 | 164 | 485 | 817 | 2780 | 4880 | 5640 | 9890 | 13100 |
| 2026-05-08 03:45 | 10.89 | 3210 | 17400 (2002) | 80 (1981) | 3670 | 133 | 164 | 485 | 817 | 2780 | 4880 | 5640 | 9890 | 13100 |
| 2026-05-08 02:45 | 10.70 | 3060 | 17400 (2002) | 80 (1981) | 3670 | 133 | 164 | 485 | 817 | 2780 | 4880 | 5640 | 9890 | 13100 |
| 2026-05-08 01:45 | 10.10 | 2590 | 17400 (2002) | 80 (1981) | 3670 | 133 | 164 | 485 | 817 | 2780 | 4880 | 5640 | 9890 | 13100 |
| 2026-05-08 00:45 | 8.95 | 1780 | 17400 (2002) | 80 (1981) | 3670 | 133 | 164 | 485 | 817 | 2780 | 4880 | 5640 | 9890 | 13100 |
| 2026-05-07 23:45 | 7.12 | 719 | 17400 (2002) | 80 (1981) | 3670 | 133 | 164 | 485 | 817 | 2780 | 4880 | 5640 | 9890 | 13100 |
| 2026-05-07 22:45 | 6.27 | 369 | 16000 (1994) | 80 (1981) | 3190 | 133 | 160 | 511 | 761 | 3000 | 4090 | 4970 | 5660 | 10200 |
| 2026-05-07 21:45 | 6.33 | 391 | 16000 (1994) | 80 (1981) | 3190 | 133 | 160 | 511 | 761 | 3000 | 4090 | 4970 | 5660 | 10200 |
| 2026-05-07 20:45 | 6.40 | 416 | 16000 (1994) | 80 (1981) | 3190 | 133 | 160 | 511 | 761 | 3000 | 4090 | 4970 | 5660 | 10200 |
| 2026-05-07 19:45 | 6.49 | 450 | 16000 (1994) | 80 (1981) | 3190 | 133 | 160 | 511 | 761 | 3000 | 4090 | 4970 | 5660 | 10200 |
| 2026-05-07 18:45 | 6.58 | 485 | 16000 (1994) | 80 (1981) | 3190 | 133 | 160 | 511 | 761 | 3000 | 4090 | 4970 | 5660 | 10200 |
| 2026-05-07 17:45 | 6.69 | 530 | 16000 (1994) | 80 (1981) | 3190 | 133 | 160 | 511 | 761 | 3000 | 4090 | 4970 | 5660 | 10200 |
| 2026-05-07 16:45 | 6.80 | 576 | 16000 (1994) | 80 (1981) | 3190 | 133 | 160 | 511 | 761 | 3000 | 4090 | 4970 | 5660 | 10200 |
| 2026-05-07 15:45 | 6.93 | 632 | 16000 (1994) | 80 (1981) | 3190 | 133 | 160 | 511 | 761 | 3000 | 4090 | 4970 | 5660 | 10200 |
| 2026-05-07 14:45 | 7.08 | 700 | 16000 (1994) | 80 (1981) | 3190 | 133 | 160 | 511 | 761 | 3000 | 4090 | 4970 | 5660 | 10200 |
| 2026-05-07 13:45 | 7.25 | 781 | 16000 (1994) | 80 (1981) | 3190 | 133 | 160 | 511 | 761 | 3000 | 4090 | 4970 | 5660 | 10200 |
| 2026-05-07 12:45 | 7.47 | 891 | 16000 (1994) | 80 (1981) | 3190 | 133 | 160 | 511 | 761 | 3000 | 4090 | 4970 | 5660 | 10200 |
| 2026-05-07 11:45 | 7.71 | 1020 | 16000 (1994) | 80 (1981) | 3190 | 133 | 160 | 511 | 761 | 3000 | 4090 | 4970 | 5660 | 10200 |
| 2026-05-07 10:45 | 7.99 | 1180 | 16000 (1994) | 80 (1981) | 3190 | 133 | 160 | 511 | 761 | 3000 | 4090 | 4970 | 5660 | 10200 |
| 2026-05-07 09:45 | 8.32 | 1390 | 16000 (1994) | 80 (1981) | 3190 | 133 | 160 | 511 | 761 | 3000 | 4090 | 4970 | 5660 | 10200 |
| 2026-05-07 08:45 | 8.66 | 1590 | 16000 (1994) | 80 (1981) | 3190 | 133 | 160 | 511 | 761 | 3000 | 4090 | 4970 | 5660 | 10200 |
| 2026-05-07 07:45 | 9.00 | 1810 | 16000 (1994) | 80 (1981) | 3190 | 133 | 160 | 511 | 761 | 3000 | 4090 | 4970 | 5660 | 10200 |
| 2026-05-07 06:45 | 9.30 | 2010 | 16000 (1994) | 80 (1981) | 3190 | 133 | 160 | 511 | 761 | 3000 | 4090 | 4970 | 5660 | 10200 |
| 2026-05-07 05:45 | 9.53 | 2170 | 16000 (1994) | 80 (1981) | 3190 | 133 | 160 | 511 | 761 | 3000 | 4090 | 4970 | 5660 | 10200 |
| 2026-05-07 04:45 | 9.58 | 2210 | 16000 (1994) | 80 (1981) | 3190 | 133 | 160 | 511 | 761 | 3000 | 4090 | 4970 | 5660 | 10200 |
| 2026-05-07 03:45 | 9.38 | 2070 | 16000 (1994) | 80 (1981) | 3190 | 133 | 160 | 511 | 761 | 3000 | 4090 | 4970 | 5660 | 10200 |
| 2026-05-07 02:45 | 8.77 | 1660 | 16000 (1994) | 80 (1981) | 3190 | 133 | 160 | 511 | 761 | 3000 | 4090 | 4970 | 5660 | 10200 |
| 2026-05-07 01:45 | 7.52 | 917 | 16000 (1994) | 80 (1981) | 3190 | 133 | 160 | 511 | 761 | 3000 | 4090 | 4970 | 5660 | 10200 |
| 2026-05-07 00:45 | 6.20 | 345 | 16000 (1994) | 80 (1981) | 3190 | 133 | 160 | 511 | 761 | 3000 | 4090 | 4970 | 5660 | 10200 |
| 2026-05-06 23:45 | 6.18 | 338 | 16000 (1994) | 80 (1981) | 3190 | 133 | 160 | 511 | 761 | 3000 | 4090 | 4970 | 5660 | 10200 |
| 2026-05-06 22:45 | 6.22 | 352 | 19100 (2022) | 80 (1981) | 2990 | 136 | 196 | 469 | 759 | 2610 | 3930 | 4320 | 5440 | 9800 |
| 2026-05-06 21:45 | 6.27 | 369 | 19100 (2022) | 80 (1981) | 2990 | 136 | 196 | 469 | 759 | 2610 | 3930 | 4320 | 5440 | 9800 |
| 2026-05-06 20:45 | 6.33 | 391 | 19100 (2022) | 80 (1981) | 2990 | 136 | 196 | 469 | 759 | 2610 | 3930 | 4320 | 5440 | 9800 |
| 2026-05-06 19:45 | 6.40 | 416 | 19100 (2022) | 80 (1981) | 2990 | 136 | 196 | 469 | 759 | 2610 | 3930 | 4320 | 5440 | 9800 |
| 2026-05-06 18:45 | 6.47 | 443 | 19100 (2022) | 80 (1981) | 2990 | 136 | 196 | 469 | 759 | 2610 | 3930 | 4320 | 5440 | 9800 |
| 2026-05-06 17:45 | 6.55 | 473 | 19100 (2022) | 80 (1981) | 2990 | 136 | 196 | 469 | 759 | 2610 | 3930 | 4320 | 5440 | 9800 |
| 2026-05-06 16:45 | 6.64 | 509 | 19100 (2022) | 80 (1981) | 2990 | 136 | 196 | 469 | 759 | 2610 | 3930 | 4320 | 5440 | 9800 |
| 2026-05-06 15:45 | 6.74 | 550 | 19100 (2022) | 80 (1981) | 2990 | 136 | 196 | 469 | 759 | 2610 | 3930 | 4320 | 5440 | 9800 |
| 2026-05-06 14:45 | 6.85 | 597 | 19100 (2022) | 80 (1981) | 2990 | 136 | 196 | 469 | 759 | 2610 | 3930 | 4320 | 5440 | 9800 |
| 2026-05-06 13:45 | 6.97 | 650 | 19100 (2022) | 80 (1981) | 2990 | 136 | 196 | 469 | 759 | 2610 | 3930 | 4320 | 5440 | 9800 |
| 2026-05-06 12:45 | 7.12 | 719 | 19100 (2022) | 80 (1981) | 2990 | 136 | 196 | 469 | 759 | 2610 | 3930 | 4320 | 5440 | 9800 |
| 2026-05-06 11:45 | 7.29 | 800 | 19100 (2022) | 80 (1981) | 2990 | 136 | 196 | 469 | 759 | 2610 | 3930 | 4320 | 5440 | 9800 |
| 2026-05-06 10:45 | 7.51 | 912 | 19100 (2022) | 80 (1981) | 2990 | 136 | 196 | 469 | 759 | 2610 | 3930 | 4320 | 5440 | 9800 |
| 2026-05-06 09:45 | 7.75 | 1040 | 19100 (2022) | 80 (1981) | 2990 | 136 | 196 | 469 | 759 | 2610 | 3930 | 4320 | 5440 | 9800 |
| 2026-05-06 08:45 | 8.04 | 1210 | 19100 (2022) | 80 (1981) | 2990 | 136 | 196 | 469 | 759 | 2610 | 3930 | 4320 | 5440 | 9800 |
| 2026-05-06 07:45 | 8.37 | 1410 | 19100 (2022) | 80 (1981) | 2990 | 136 | 196 | 469 | 759 | 2610 | 3930 | 4320 | 5440 | 9800 |
| 2026-05-06 06:45 | 8.71 | 1620 | 19100 (2022) | 80 (1981) | 2990 | 136 | 196 | 469 | 759 | 2610 | 3930 | 4320 | 5440 | 9800 |
| 2026-05-06 05:45 | 9.05 | 1840 | 19100 (2022) | 80 (1981) | 2990 | 136 | 196 | 469 | 759 | 2610 | 3930 | 4320 | 5440 | 9800 |
| 2026-05-06 04:45 | 9.35 | 2050 | 19100 (2022) | 80 (1981) | 2990 | 136 | 196 | 469 | 759 | 2610 | 3930 | 4320 | 5440 | 9800 |
| 2026-05-06 03:45 | 9.57 | 2200 | 19100 (2022) | 80 (1981) | 2990 | 136 | 196 | 469 | 759 | 2610 | 3930 | 4320 | 5440 | 9800 |
| 2026-05-06 02:45 | 9.64 | 2250 | 19100 (2022) | 80 (1981) | 2990 | 136 | 196 | 469 | 759 | 2610 | 3930 | 4320 | 5440 | 9800 |
| 2026-05-06 01:45 | 9.46 | 2120 | 19100 (2022) | 80 (1981) | 2990 | 136 | 196 | 469 | 759 | 2610 | 3930 | 4320 | 5440 | 9800 |
| 2026-05-06 00:45 | 8.90 | 1750 | 19100 (2022) | 80 (1981) | 2990 | 136 | 196 | 469 | 759 | 2610 | 3930 | 4320 | 5440 | 9800 |
| 2026-05-05 23:45 | 7.73 | 1030 | 19100 (2022) | 80 (1981) | 2990 | 136 | 196 | 469 | 759 | 2610 | 3930 | 4320 | 5440 | 9800 |
| 2026-05-05 22:45 | 6.54 | 469 | 17000 (1999) | 85 (1981) | 2940 | 114 | 165 | 521 | 767 | 2220 | 3680 | 4110 | 5600 | 12700 |
| 2026-05-05 21:45 | 6.47 | 443 | 17000 (1999) | 85 (1981) | 2940 | 114 | 165 | 521 | 767 | 2220 | 3680 | 4110 | 5600 | 12700 |
| 2026-05-05 20:45 | 6.54 | 469 | 17000 (1999) | 85 (1981) | 2940 | 114 | 165 | 521 | 767 | 2220 | 3680 | 4110 | 5600 | 12700 |
| 2026-05-05 19:45 | 6.63 | 505 | 17000 (1999) | 85 (1981) | 2940 | 114 | 165 | 521 | 767 | 2220 | 3680 | 4110 | 5600 | 12700 |
| 2026-05-05 18:45 | 6.72 | 542 | 17000 (1999) | 85 (1981) | 2940 | 114 | 165 | 521 | 767 | 2220 | 3680 | 4110 | 5600 | 12700 |
| 2026-05-05 17:45 | 6.83 | 588 | 17000 (1999) | 85 (1981) | 2940 | 114 | 165 | 521 | 767 | 2220 | 3680 | 4110 | 5600 | 12700 |
| 2026-05-05 16:45 | 6.96 | 645 | 17000 (1999) | 85 (1981) | 2940 | 114 | 165 | 521 | 767 | 2220 | 3680 | 4110 | 5600 | 12700 |
| 2026-05-05 15:45 | 7.11 | 714 | 17000 (1999) | 85 (1981) | 2940 | 114 | 165 | 521 | 767 | 2220 | 3680 | 4110 | 5600 | 12700 |
| 2026-05-05 14:45 | 7.28 | 796 | 17000 (1999) | 85 (1981) | 2940 | 114 | 165 | 521 | 767 | 2220 | 3680 | 4110 | 5600 | 12700 |
| 2026-05-05 13:45 | 7.49 | 901 | 17000 (1999) | 85 (1981) | 2940 | 114 | 165 | 521 | 767 | 2220 | 3680 | 4110 | 5600 | 12700 |
| 2026-05-05 12:45 | 7.75 | 1040 | 17000 (1999) | 85 (1981) | 2940 | 114 | 165 | 521 | 767 | 2220 | 3680 | 4110 | 5600 | 12700 |
| 2026-05-05 11:45 | 8.07 | 1230 | 17000 (1999) | 85 (1981) | 2940 | 114 | 165 | 521 | 767 | 2220 | 3680 | 4110 | 5600 | 12700 |
| 2026-05-05 10:45 | 8.43 | 1450 | 17000 (1999) | 85 (1981) | 2940 | 114 | 165 | 521 | 767 | 2220 | 3680 | 4110 | 5600 | 12700 |
| 2026-05-05 09:45 | 8.86 | 1720 | 17000 (1999) | 85 (1981) | 2940 | 114 | 165 | 521 | 767 | 2220 | 3680 | 4110 | 5600 | 12700 |
| 2026-05-05 08:45 | 9.31 | 2020 | 17000 (1999) | 85 (1981) | 2940 | 114 | 165 | 521 | 767 | 2220 | 3680 | 4110 | 5600 | 12700 |
| 2026-05-05 07:45 | 9.79 | 2360 | 17000 (1999) | 85 (1981) | 2940 | 114 | 165 | 521 | 767 | 2220 | 3680 | 4110 | 5600 | 12700 |
| 2026-05-05 06:45 | 10.26 | 2710 | 17000 (1999) | 85 (1981) | 2940 | 114 | 165 | 521 | 767 | 2220 | 3680 | 4110 | 5600 | 12700 |
| 2026-05-05 05:45 | 10.68 | 3040 | 17000 (1999) | 85 (1981) | 2940 | 114 | 165 | 521 | 767 | 2220 | 3680 | 4110 | 5600 | 12700 |
| 2026-05-05 04:45 | 11.01 | 3310 | 17000 (1999) | 85 (1981) | 2940 | 114 | 165 | 521 | 767 | 2220 | 3680 | 4110 | 5600 | 12700 |
| 2026-05-05 03:45 | 11.17 | 3440 | 17000 (1999) | 85 (1981) | 2940 | 114 | 165 | 521 | 767 | 2220 | 3680 | 4110 | 5600 | 12700 |
| 2026-05-05 02:45 | 11.04 | 3340 | 17000 (1999) | 85 (1981) | 2940 | 114 | 165 | 521 | 767 | 2220 | 3680 | 4110 | 5600 | 12700 |
| 2026-05-05 01:45 | 10.53 | 2920 | 17000 (1999) | 85 (1981) | 2940 | 114 | 165 | 521 | 767 | 2220 | 3680 | 4110 | 5600 | 12700 |
| 2026-05-05 00:45 | 9.49 | 2140 | 17000 (1999) | 85 (1981) | 2940 | 114 | 165 | 521 | 767 | 2220 | 3680 | 4110 | 5600 | 12700 |
| 2026-05-04 23:45 | 7.70 | 1010 | 17000 (1999) | 85 (1981) | 2940 | 114 | 165 | 521 | 767 | 2220 | 3680 | 4110 | 5600 | 12700 |
| 2026-05-04 22:45 | 6.15 | 328 | 16000 (2017) | 76 (1981) | 2770 | 114 | 139 | 235 | 451 | 2240 | 3910 | 4370 | 5980 | 8970 |
| 2026-05-04 21:45 | 6.12 | 318 | 16000 (2017) | 76 (1981) | 2770 | 114 | 139 | 235 | 451 | 2240 | 3910 | 4370 | 5980 | 8970 |
| 2026-05-04 20:45 | 6.12 | 318 | 16000 (2017) | 76 (1981) | 2770 | 114 | 139 | 235 | 451 | 2240 | 3910 | 4370 | 5980 | 8970 |
| 2026-05-04 19:45 | 6.13 | 322 | 16000 (2017) | 76 (1981) | 2770 | 114 | 139 | 235 | 451 | 2240 | 3910 | 4370 | 5980 | 8970 |
| 2026-05-04 18:45 | 6.13 | 322 | 16000 (2017) | 76 (1981) | 2770 | 114 | 139 | 235 | 451 | 2240 | 3910 | 4370 | 5980 | 8970 |
| 2026-05-04 17:45 | 6.14 | 325 | 16000 (2017) | 76 (1981) | 2770 | 114 | 139 | 235 | 451 | 2240 | 3910 | 4370 | 5980 | 8970 |
| 2026-05-04 16:45 | 6.14 | 325 | 16000 (2017) | 76 (1981) | 2770 | 114 | 139 | 235 | 451 | 2240 | 3910 | 4370 | 5980 | 8970 |
| 2026-05-04 15:45 | 6.15 | 328 | 16000 (2017) | 76 (1981) | 2770 | 114 | 139 | 235 | 451 | 2240 | 3910 | 4370 | 5980 | 8970 |
| 2026-05-04 14:45 | 6.15 | 328 | 16000 (2017) | 76 (1981) | 2770 | 114 | 139 | 235 | 451 | 2240 | 3910 | 4370 | 5980 | 8970 |
| 2026-05-04 13:45 | 6.16 | 332 | 16000 (2017) | 76 (1981) | 2770 | 114 | 139 | 235 | 451 | 2240 | 3910 | 4370 | 5980 | 8970 |
| 2026-05-04 12:45 | 6.17 | 335 | 16000 (2017) | 76 (1981) | 2770 | 114 | 139 | 235 | 451 | 2240 | 3910 | 4370 | 5980 | 8970 |
| 2026-05-04 11:45 | 6.17 | 335 | 16000 (2017) | 76 (1981) | 2770 | 114 | 139 | 235 | 451 | 2240 | 3910 | 4370 | 5980 | 8970 |
| 2026-05-04 10:45 | 6.17 | 335 | 16000 (2017) | 76 (1981) | 2770 | 114 | 139 | 235 | 451 | 2240 | 3910 | 4370 | 5980 | 8970 |
| 2026-05-04 09:45 | 6.18 | 338 | 16000 (2017) | 76 (1981) | 2770 | 114 | 139 | 235 | 451 | 2240 | 3910 | 4370 | 5980 | 8970 |
| 2026-05-04 08:45 | 6.18 | 338 | 16000 (2017) | 76 (1981) | 2770 | 114 | 139 | 235 | 451 | 2240 | 3910 | 4370 | 5980 | 8970 |
| 2026-05-04 07:45 | 6.19 | 332 | 16000 (2017) | 76 (1981) | 2770 | 114 | 139 | 235 | 451 | 2240 | 3910 | 4370 | 5980 | 8970 |
| 2026-05-04 06:45 | 6.19 | 332 | 16000 (2017) | 76 (1981) | 2770 | 114 | 139 | 235 | 451 | 2240 | 3910 | 4370 | 5980 | 8970 |
| 2026-05-04 05:45 | 6.20 | 335 | 16000 (2017) | 76 (1981) | 2770 | 114 | 139 | 235 | 451 | 2240 | 3910 | 4370 | 5980 | 8970 |
| 2026-05-04 04:45 | 6.21 | 338 | 16000 (2017) | 76 (1981) | 2770 | 114 | 139 | 235 | 451 | 2240 | 3910 | 4370 | 5980 | 8970 |
| 2026-05-04 03:45 | 6.22 | 342 | 16000 (2017) | 76 (1981) | 2770 | 114 | 139 | 235 | 451 | 2240 | 3910 | 4370 | 5980 | 8970 |
| 2026-05-04 02:45 | 6.23 | 345 | 16000 (2017) | 76 (1981) | 2770 | 114 | 139 | 235 | 451 | 2240 | 3910 | 4370 | 5980 | 8970 |
| 2026-05-04 01:45 | 6.24 | 348 | 16000 (2017) | 76 (1981) | 2770 | 114 | 139 | 235 | 451 | 2240 | 3910 | 4370 | 5980 | 8970 |
| 2026-05-04 00:45 | 6.24 | 348 | 16000 (2017) | 76 (1981) | 2770 | 114 | 139 | 235 | 451 | 2240 | 3910 | 4370 | 5980 | 8970 |
| 2026-05-03 23:45 | 6.25 | 352 | 16000 (2017) | 76 (1981) | 2770 | 114 | 139 | 235 | 451 | 2240 | 3910 | 4370 | 5980 | 8970 |
| 2026-05-03 22:45 | 6.26 | 355 | 9790 (2019) | 78 (1981) | 2680 | 116 | 144 | 231 | 358 | 2350 | 3950 | 4930 | 5830 | 7600 |
| 2026-05-03 21:45 | 6.26 | 355 | 9790 (2019) | 78 (1981) | 2680 | 116 | 144 | 231 | 358 | 2350 | 3950 | 4930 | 5830 | 7600 |
| 2026-05-03 20:45 | 6.27 | 359 | 9790 (2019) | 78 (1981) | 2680 | 116 | 144 | 231 | 358 | 2350 | 3950 | 4930 | 5830 | 7600 |
| 2026-05-03 19:45 | 6.27 | 359 | 9790 (2019) | 78 (1981) | 2680 | 116 | 144 | 231 | 358 | 2350 | 3950 | 4930 | 5830 | 7600 |
| 2026-05-03 18:45 | 6.28 | 362 | 9790 (2019) | 78 (1981) | 2680 | 116 | 144 | 231 | 358 | 2350 | 3950 | 4930 | 5830 | 7600 |
| 2026-05-03 17:45 | 6.29 | 366 | 9790 (2019) | 78 (1981) | 2680 | 116 | 144 | 231 | 358 | 2350 | 3950 | 4930 | 5830 | 7600 |
| 2026-05-03 16:45 | 6.29 | 366 | 9790 (2019) | 78 (1981) | 2680 | 116 | 144 | 231 | 358 | 2350 | 3950 | 4930 | 5830 | 7600 |
| 2026-05-03 15:45 | 6.31 | 373 | 9790 (2019) | 78 (1981) | 2680 | 116 | 144 | 231 | 358 | 2350 | 3950 | 4930 | 5830 | 7600 |
| 2026-05-03 14:45 | 6.31 | 373 | 9790 (2019) | 78 (1981) | 2680 | 116 | 144 | 231 | 358 | 2350 | 3950 | 4930 | 5830 | 7600 |
| 2026-05-03 13:45 | 6.32 | 376 | 9790 (2019) | 78 (1981) | 2680 | 116 | 144 | 231 | 358 | 2350 | 3950 | 4930 | 5830 | 7600 |
| 2026-05-03 12:45 | 6.33 | 380 | 9790 (2019) | 78 (1981) | 2680 | 116 | 144 | 231 | 358 | 2350 | 3950 | 4930 | 5830 | 7600 |
| 2026-05-03 11:45 | 6.35 | 387 | 9790 (2019) | 78 (1981) | 2680 | 116 | 144 | 231 | 358 | 2350 | 3950 | 4930 | 5830 | 7600 |
| 2026-05-03 10:45 | 6.35 | 387 | 9790 (2019) | 78 (1981) | 2680 | 116 | 144 | 231 | 358 | 2350 | 3950 | 4930 | 5830 | 7600 |
| 2026-05-03 09:45 | 6.36 | 391 | 9790 (2019) | 78 (1981) | 2680 | 116 | 144 | 231 | 358 | 2350 | 3950 | 4930 | 5830 | 7600 |
| 2026-05-03 08:45 | 6.37 | 394 | 9790 (2019) | 78 (1981) | 2680 | 116 | 144 | 231 | 358 | 2350 | 3950 | 4930 | 5830 | 7600 |
| 2026-05-03 07:45 | 6.39 | 402 | 9790 (2019) | 78 (1981) | 2680 | 116 | 144 | 231 | 358 | 2350 | 3950 | 4930 | 5830 | 7600 |
| 2026-05-03 06:45 | 6.40 | 405 | 9790 (2019) | 78 (1981) | 2680 | 116 | 144 | 231 | 358 | 2350 | 3950 | 4930 | 5830 | 7600 |
| 2026-05-03 05:45 | 6.42 | 413 | 9790 (2019) | 78 (1981) | 2680 | 116 | 144 | 231 | 358 | 2350 | 3950 | 4930 | 5830 | 7600 |
| 2026-05-03 04:45 | 6.44 | 420 | 9790 (2019) | 78 (1981) | 2680 | 116 | 144 | 231 | 358 | 2350 | 3950 | 4930 | 5830 | 7600 |
| 2026-05-03 03:45 | 6.46 | 427 | 9790 (2019) | 78 (1981) | 2680 | 116 | 144 | 231 | 358 | 2350 | 3950 | 4930 | 5830 | 7600 |
| 2026-05-03 02:45 | 6.49 | 439 | 9790 (2019) | 78 (1981) | 2680 | 116 | 144 | 231 | 358 | 2350 | 3950 | 4930 | 5830 | 7600 |
| 2026-05-03 01:45 | 6.51 | 446 | 9790 (2019) | 78 (1981) | 2680 | 116 | 144 | 231 | 358 | 2350 | 3950 | 4930 | 5830 | 7600 |
| 2026-05-03 00:45 | 6.55 | 462 | 9790 (2019) | 78 (1981) | 2680 | 116 | 144 | 231 | 358 | 2350 | 3950 | 4930 | 5830 | 7600 |
| 2026-05-02 23:45 | 6.58 | 473 | 9790 (2019) | 78 (1981) | 2680 | 116 | 144 | 231 | 358 | 2350 | 3950 | 4930 | 5830 | 7600 |
A total of 178 rows are displayed for years 1975 through 2025.